Powrót do katalogu

HAWK-13B

AktywnyNaukaSSO
NORAD 67396·PAYLOAD·🇺🇸 United States

Wystrzelony Jan 11, 2026 z Vandenberg Space Force Base

Loading…

Następne Przeloty (najbliższe 24 godziny)

TLE

ŚwieżeSource: Space-Track

Epoka: Sep 13, 2026, 23:11 UTC

1 67396U 26004AK  26256.96639437  .00003533  00000-0  16829-3 0  9994
2 67396  97.4582 254.9428 0007647  37.7564 322.4206 15.19763281 37246

Śledź HAWK-13B w czasie rzeczywistym z AllMySat

Download on the App Store